TITAN 3C TRANSTAGE DEB, 4907

Orbit data source: Space-Track

TITAN 3C TRANSTAGE DEB, 4907 is space debris in LEO originally from a launch on Fri, 15 Oct 1965 UTC launched from the Air Force Eastern Test Range (AFETR). Debris objects in space refer to the collection of defunct objects orbiting the Earth. Examples of debris include non-operational satellites, rocket bodies, and fragments generated from explosions, collisions, or faulty payload assembly.

Loading next visibility...
Identifier
4907, 1965-082SV
Orbit
LEO
Country
Flag of USUS
Related business
Manufacturer
Unknown
Mission
Spacecraft
Bus & Motor
Unknown
Mass
Unknown
Launch date (UTC)
1965-10-15 (60 years ago)
Launch vehicle
Unknown
Launch site
Air Force Eastern Test Range (AFETR)
Object type
Payload
Rocket body
Debris
Shape & HBR
Unknown shape, 0.1 m
Radar Cross Section
Small (<0.1 m²)

Expand to show TLE details & history
Last TLE update: 21 hours ago

TLE from 21 hours ago
0 TITAN 3C TRANSTAGE DEB
1 04907U 65082SV  26033.46052002  .00000732  00000-0  14034-3 0  9991
2 04907  32.4849  91.6347 0046026 176.9543 183.1394 14.60390245198512
Epoch: 2026-02-02T11:03Z
TLE epoch observation values (Epoch: 2026-02-02T11:03:08.929Z)
Latitude
-0.00003°
Longitude
153.19197°
Altitude
723.084 km
Speed
7.479 km/s
True Right ascension
06h 06m 32s
True Declination
0° 00' 00"
Sunlit
Object was in full shadow at epoch
Visualization orbit readout
Latitude
Unknown
Longitude
Unknown
Altitude
Unknown
Speed
Unknown
Apparent Right ascension
Unknown
Apparent Declination
Unknown
Sunlit
N/A
Visualization observer readout
Local Sidereal Time
09:44:22
Azimuth
Unknown
Elevation
Unknown
Doppler factor
Unknown
Orbital elements
Apogee altitude
728.011 km
Perigee altitude
662.897 km
Semi-major axis
7,073.591 km
Eccentricity
0.0046
Inclination
32.4849°
RAAN
91.6347°
Arg. of periapsis
176.9543°
True anomaly
183.11068°
Mean anomaly
183.1394°
Eccentric anomaly
183.12502°
Mean motion
3.64824 °/min
Orbital period
98.68 mins
BSTAR
0.00014034

Documentation

Showing up to 5 results
|